YN3ZBQ-13 Weather Reports


time (UTC)temp
C
wind
direction
speed
KPH
gust
KPH
rain 1hr
cm
rain 24hr
cm
rain mn
cm
humidity
%
barometer
mb
20260507210623 32 240 17.7 11.3 0.00 0.00 0.00 44 1007.0
20260507205623 33 240 17.7 11.3 0.00 0.00 0.00 44 1007.0
20260507204623 33 240 17.7 11.3 0.00 0.00 0.00 44 1007.0
20260507203622 34 240 17.7 11.3 0.00 0.00 0.00 44 1007.0
20260507202622 31 238 11.3 11.3 0.00 0.00 0.00 39 1008.0
20260507201622 32 238 11.3 11.3 0.00 0.00 0.00 39 1008.0
20260507200621 32 238 11.3 11.3 0.00 0.00 0.00 39 1008.0
20260507195621 32 238 11.3 11.3 0.00 0.00 0.00 39 1008.0
20260507194621 33 238 11.3 11.3 0.00 0.00 0.00 39 1008.0
20260507193621 33 238 11.3 11.3 0.00 0.00 0.00 39 1008.0
20260507192620 34 238 11.3 11.3 0.00 0.00 0.00 39 1009.0
20260507191620 34 238 11.3 11.3 0.00 0.00 0.00 39 1009.0
20260507190620 35 238 11.3 11.3 0.00 0.00 0.00 39 1009.0
20260507185620 32 235 8.0 11.3 0.00 0.00 0.00 41 1009.0
20260507184619 32 235 8.0 11.3 0.00 0.00 0.00 41 1009.0
20260507183619 32 235 8.0 11.3 0.00 0.00 0.00 41 1009.0
20260507182619 33 235 8.0 11.3 0.00 0.00 0.00 41 1010.0
20260507181618 31 235 8.0 11.3 0.00 0.00 0.00 42 1010.0
20260507180618 32 235 8.0 11.3 0.00 0.00 0.00 42 1010.0
20260507175617 32 235 8.0 11.3 0.00 0.00 0.00 42 1010.0
20260507174617 33 235 8.0 11.3 0.00 0.00 0.00 42 1010.0
20260507173617 31 251 1.6 12.9 0.00 0.00 0.00 43 1010.0
20260507172616 32 251 1.6 12.9 0.00 0.00 0.00 43 1011.0
20260507171616 32 251 3.2 12.9 0.00 0.00 0.00 43 1011.0
20260507170616 31 251 1.6 12.9 0.00 0.00 0.00 44 1011.0
20260507165615 31 251 1.6 12.9 0.00 0.00 0.00 44 1011.0
20260507164615 32 251 1.6 12.9 0.00 0.00 0.00 44 1011.0
20260507163615 32 251 3.2 12.9 0.00 0.00 0.00 44 1011.0
20260507162614 30 317 1.6 11.3 0.00 0.00 0.00 48 1012.0
20260507161614 31 317 1.6 11.3 0.00 0.00 0.00 48 1012.0
20260507160614 31 317 1.6 11.3 0.00 0.00 0.00 48 1012.0
20260507155613 30 317 1.6 11.3 0.00 0.00 0.00 50 1012.0
20260507154613 31 317 1.6 11.3 0.00 0.00 0.00 50 1012.0
20260507153612 29 356 1.6 6.4 0.00 0.00 0.00 55 1012.0
20260507152612 30 356 3.2 6.4 0.00 0.00 0.00 55 1012.0
20260507151612 29 356 1.6 6.4 0.00 0.00 0.00 55 1012.0
20260507150612 29 356 1.6 6.4 0.00 0.00 0.00 55 1012.0
20260507144611 30 356 3.2 6.4 0.00 0.00 0.00 55 1012.0
20260507143610 27 17 1.6 4.8 0.00 0.00 0.00 60 1012.0
20260507142610 28 17 3.2 4.8 0.00 0.00 0.00 60 1012.0
20260507141610 27 17 1.6 4.8 0.00 0.00 0.00 60 1012.0
20260507140609 27 17 1.6 4.8 0.00 0.00 0.00 60 1012.0
20260507135609 28 17 3.2 4.8 0.00 0.00 0.00 60 1012.0
20260507134608 27 17 1.6 4.8 0.00 0.00 0.00 63 1011.0
20260507133608 27 17 3.2 4.8 0.00 0.00 0.00 63 1011.0
20260507132608 25 63 1.6 1.6 0.00 0.00 0.00 69 1011.0
20260507131608 25 63 1.6 1.6 0.00 0.00 0.00 69 1011.0
20260507130607 26 63 1.6 3.2 0.00 0.00 0.00 69 1011.0
20260507125606 25 63 1.6 1.6 0.00 0.00 0.00 69 1011.0
20260507124606 25 63 1.6 1.6 0.00 0.00 0.00 69 1011.0
20260507123606 26 63 1.6 3.2 0.00 0.00 0.00 69 1011.0
20260507122605 23 89 1.6 4.8 0.00 0.00 0.00 73 1010.0
20260507121605 24 89 1.6 4.8 0.00 0.00 0.00 73 1010.0
20260507120605 25 89 1.6 4.8 0.00 0.00 0.00 73 1010.0
20260507115605 25 89 1.6 4.8 0.00 0.00 0.00 73 1010.0
20260507114604 23 121 1.6 4.8 0.00 0.00 0.00 74 1010.0
20260507113603 24 121 1.6 4.8 0.00 0.00 0.00 74 1010.0
20260507112603 25 121 3.2 4.8 0.00 0.00 0.00 74 1010.0
20260507111603 25 121 3.2 4.8 0.00 0.00 0.00 74 1010.0
20260507110603 23 121 1.6 4.8 0.00 0.00 0.00 74 1010.0
20260507105602 24 121 1.6 4.8 0.00 0.00 0.00 74 1010.0
20260507104602 25 121 3.2 4.8 0.00 0.00 0.00 74 1010.0
20260507103601 25 121 3.2 4.8 0.00 0.00 0.00 74 1010.0
20260507102601 23 141 1.6 6.4 0.00 0.00 0.00 74 1010.0
20260507101601 24 141 3.2 6.4 0.00 0.00 0.00 74 1010.0
20260507100601 23 141 1.6 6.4 0.00 0.00 0.00 74 1010.0
20260507095600 24 141 3.2 6.4 0.00 0.00 0.00 74 1010.0
20260507094600 23 141 1.6 6.4 0.00 0.00 0.00 73 1010.0
20260507093600 24 141 3.2 6.4 0.00 0.00 0.00 73 1010.0
20260507092559 23 151 1.6 6.4 0.00 0.00 0.00 72 1010.0
20260507091559 24 151 1.6 6.4 0.00 0.00 0.00 72 1010.0
20260507090559 25 151 1.6 6.4 0.00 0.00 0.00 72 1010.0
20260507085558 25 151 1.6 6.4 0.00 0.00 0.00 72 1010.0
20260507084558 23 151 1.6 6.4 0.00 0.00 0.00 70 1010.0
20260507083557 24 151 1.6 6.4 0.00 0.00 0.00 70 1010.0
20260507082557 25 267 0.0 1.6 0.00 0.00 0.00 70 1010.0
20260507081556 25 267 0.0 1.6 0.00 0.00 0.00 70 1010.0
20260507080556 26 267 0.0 1.6 0.00 0.00 0.00 70 1010.0
20260507075556 24 234 1.6 1.6 0.00 0.00 0.00 70 1010.0
20260507074555 25 234 1.6 1.6 0.00 0.00 0.00 70 1010.0
20260507073555 25 234 1.6 1.6 0.00 0.00 0.00 70 1010.0
20260507072554 26 234 3.2 3.2 0.00 0.00 0.00 70 1011.0
20260507071554 24 234 1.6 1.6 0.00 0.00 0.00 70 1011.0
20260507070554 25 234 1.6 1.6 0.00 0.00 0.00 70 1011.0
20260507065554 25 234 1.6 1.6 0.00 0.00 0.00 70 1011.0
20260507064553 26 234 1.6 1.6 0.00 0.00 0.00 70 1011.0
20260507063553 26 234 3.2 3.2 0.00 0.00 0.00 70 1011.0
20260507062553 25 232 1.6 1.6 0.00 0.00 0.00 68 1011.0
20260507061552 25 232 1.6 1.6 0.00 0.00 0.00 68 1011.0
20260507060552 26 232 1.6 1.6 0.00 0.00 0.00 68 1011.0
20260507055551 26 232 1.6 1.6 0.00 0.00 0.00 68 1011.0
20260507054551 26 232 3.2 3.2 0.00 0.00 0.00 68 1011.0
20260507053550 25 259 1.6 1.6 0.00 0.00 0.00 63 1011.0
20260507052550 25 259 1.6 1.6 0.00 0.00 0.00 63 1012.0
20260507051550 26 259 1.6 1.6 0.00 0.00 0.00 63 1012.0
20260507050549 26 259 1.6 1.6 0.00 0.00 0.00 63 1012.0
20260507045549 27 259 1.6 1.6 0.00 0.00 0.00 63 1012.0
20260507044548 27 259 1.6 1.6 0.00 0.00 0.00 63 1012.0
20260507043548 27 259 1.6 1.6 0.00 0.00 0.00 63 1012.0
20260507042548 28 259 3.2 3.2 0.00 0.00 0.00 63 1012.0
20260507041547 25 233 1.6 1.6 0.00 0.00 0.00 62 1012.0
20260507040547 26 233 1.6 1.6 0.00 0.00 0.00 62 1012.0
20260507035547 26 233 1.6 1.6 0.00 0.00 0.00 62 1012.0
20260507034546 27 233 1.6 1.6 0.00 0.00 0.00 62 1012.0
20260507033546 27 233 1.6 1.6 0.00 0.00 0.00 62 1012.0
20260507032546 28 233 1.6 1.6 0.00 0.00 0.00 62 1012.0
20260507031546 28 233 1.6 1.6 0.00 0.00 0.00 62 1012.0
20260507030545 25 219 1.6 4.8 0.00 0.00 0.00 62 1012.0
20260507025545 26 219 1.6 4.8 0.00 0.00 0.00 62 1011.0
20260507024545 26 219 1.6 4.8 0.00 0.00 0.00 62 1011.0
20260507023545 27 219 1.6 4.8 0.00 0.00 0.00 62 1011.0
20260507022544 27 219 1.6 4.8 0.00 0.00 0.00 62 1011.0
20260507021543 28 219 1.6 4.8 0.00 0.00 0.00 62 1011.0
20260507020543 26 214 8.0 12.9 0.00 0.00 0.00 41 1011.0
20260507015543 26 214 8.0 12.9 0.00 0.00 0.00 41 1010.0
20260507014542 27 214 8.0 12.9 0.00 0.00 0.00 41 1010.0
20260507013542 27 214 8.0 12.9 0.00 0.00 0.00 41 1010.0
20260507012541 28 214 8.0 12.9 0.00 0.00 0.00 41 1009.0
20260507011541 28 214 8.0 12.9 0.00 0.00 0.00 41 1009.0
20260507010541 29 214 8.0 12.9 0.00 0.00 0.00 41 1009.0
20260507005540 29 214 8.0 12.9 0.00 0.00 0.00 41 1009.0
20260507003540 30 214 9.7 12.9 0.00 0.00 0.00 41 1009.0
20260507002539 30 214 9.7 12.9 0.00 0.00 0.00 41 1009.0
20260507001539 26 180 6.4 0.0 0.00 0.00 0.00 36 1009.0
20260507000538 27 180 6.4 0.0 0.00 0.00 0.00 36 1009.0
20260506235538 27 180 6.4 0.0 0.00 0.00 0.00 36 1009.0
20260506234538 28 180 6.4 0.0 0.00 0.00 0.00 36 1009.0
20260506233538 28 180 6.4 0.0 0.00 0.00 0.00 36 1009.0
20260506232537 29 180 6.4 0.0 0.00 0.00 0.00 36 1008.0
20260506231537 29 180 6.4 0.0 0.00 0.00 0.00 36 1008.0
20260506230536 30 270 6.4 0.0 0.00 0.00 0.00 36 1008.0
20260506225536 30 270 6.4 0.0 0.00 0.00 0.00 36 1008.0
20260506224536 31 270 6.4 0.0 0.00 0.00 0.00 36 1008.0
20260506223535 31 270 6.4 0.0 0.00 0.00 0.00 36 1008.0
20260506222535 32 270 6.4 0.0 0.00 0.00 0.00 36 1007.0
20260506221535 32 270 6.4 0.0 0.00 0.00 0.00 36 1007.0
20260506220534 33 180 6.4 0.0 0.00 0.00 0.00 36 1007.0
20260506215534 33 180 6.4 0.0 0.00 0.00 0.00 36 1007.0
20260506214534 34 180 6.4 0.0 0.00 0.00 0.00 36 1007.0
20260506213533 34 180 6.4 0.0 0.00 0.00 0.00 36 1007.0
20260506212533 30 180 8.0 0.0 0.00 0.00 0.00 36 1007.0
20260506211532 30 180 9.7 0.0 0.00 0.00 0.00 36 1007.0